This demonstration page uses our WeatherBlox Daily Observations layout. Learn more.

Left ArrowRight Arrow

36.17497, -115.13722

Hourly Observations for March 23, 2021

Temp ( °F °C ) Dew Point ( °F °C ) Humidity (%) Winds ( mph kmh ) Pressure ( in mb ) Visibility ( mi km ) Precip ( " mm )
12:53 am 00:53 Mostly Cloudy 62 16.7 27 -2.8 26 26 NW 18 30 29.75 1007 10 16 0.00 0.00
1:53 am 01:53 Cloudy 61 16.1 23 -5 23 23 NW 20 31 29.74 1007 10 16 0.00 0.00
2:53 am 02:53 Cloudy 59 15 27 -2.8 29 29 NW 17 28 29.72 1007 10 16 0.00 0.00
3:53 am 03:53 Cloudy 55 12.8 33 0.6 44 44 NW 23 37 29.72 1006 10 16 0.00 0.00
4:53 am 04:53 Cloudy with Light Rain 52 11.1 37 2.8 57 57 NW 24 39 29.74 1007 10 16 0.00 0.00
5:53 am 05:53 Cloudy 52 11.1 36 2.2 55 55 NW 13 20 29.74 1007 10 16 0.00 0.00
6:53 am 06:53 Partly Cloudy 52 11.1 35 1.7 53 53 NW 14 22 29.73 1007 10 16 0.00 0.00
7:53 am 07:53 Sunny 53 11.7 35 1.7 51 51 NNW 12 19 29.74 1007 10 16 0.00 0.00
8:53 am 08:53 Sunny 56 13.3 34 1.1 44 44 NNW 12 19 29.75 1007 10 16 0.00 0.00
9:53 am 09:53 Sunny 59 15 29 -1.7 32 32 NNW 15 24 29.76 1008 10 16 0.00 0.00
10:53 am 10:53 Cloudy 59 15 28 -2.2 31 31 NW 17 28 29.76 1008 10 16 0.00 0.00
11:53 am 11:53 Cloudy 60 15.6 26 -3.3 27 27 NW 23 37 29.74 1007 10 16 0.00 0.00
12:53 pm 12:53 Cloudy 62 16.7 22 -5.6 21 21 N 14 22 29.73 1007 10 16 0.00 0.00
1:53 pm 13:53 Cloudy with Light Rain 58 14.4 31 -0.6 36 36 N 15 24 29.73 1007 10 16 0.00 0.00
2:53 pm 14:53 Cloudy 61 16.1 25 -3.9 25 25 N 16 26 29.73 1007 10 16 0.00 0.00
3:53 pm 15:53 Sunny 62 16.7 25 -3.9 24 24 NW 15 24 29.72 1006 10 16 0.00 0.00
4:53 pm 16:53 Mostly Cloudy 59 15 31 -0.6 35 35 NW 22 35 29.75 1007 10 16 0.00 0.00
5:53 pm 17:53 Mostly Cloudy with Light Rain 58 14.4 28 -2.2 32 32 NW 25 41 29.77 1008 10 16 0.00 0.00
6:53 pm 18:53 Mostly Cloudy 58 14.4 26 -3.3 29 29 NNW 24 39 29.79 1009 10 16 0.00 0.00
7:53 pm 19:53 Mostly Cloudy 57 13.9 25 -3.9 29 29 NNW 26 43 29.82 1010 10 16 0.00 0.00
8:53 pm 20:53 Clear 57 13.9 22 -5.6 26 26 NNW 20 31 29.85 1011 10 16 0.00 0.00
9:53 pm 21:53 Clear 56 13.3 21 -6.1 26 26 NNW 20 31 29.88 1012 10 16 0.00 0.00
10:53 pm 22:53 Clear 55 12.8 20 -6.7 25 25 NNW 23 37 29.89 1012 10 16 0.00 0.00
11:53 pm 23:53 Clear 54 12.2 20 -6.7 26 26 NNW 22 35 29.91 1013 10 16 0.00 0.00

Powered by AerisWeather